Skip Page Navigation
NASA JPL Caltech
NASA Logo - Jet Propulsion Laboratory + View the NASA Portal
+ Center for Near-Earth Object Studies
JPL Home Earth Solar System Stars & Galaxies Technology
JPL Solar System Dynamics
BODIES ORBITS EPHEMERIDES TOOLS PHYSICAL DATA DISCOVERY FAQ SITE MAP
JPL Small-Body Database Browser
Search: [ help ]  
100411 (1996 AF11)
Classification: Main-belt Asteroid          SPK-ID: 2100411
Ephemeris | Orbit Diagram | Orbital Elements | Mission Design | Physical Parameters | Discovery Circumstances | Close-Approach Data ]

[ hide orbit diagram ]

For accurate long-term ephemerides, please instead use our Horizons system.This orbit viewer was implemented using two-body methods, and hence should not be used for determining accurate long-term trajectories (over several years or decades) or planetary encounter circumstances.


[ revert to old Java-based viewer ]

Orbital Elements at Epoch 2459000.5 (2020-May-31.0) TDB
Reference: JPL 20 (heliocentric ecliptic J2000)
 Element Value Uncertainty (1-sigma)   Units 
e .1874770290320021 5.5954e-08  
a 2.583321953092298 1.4534e-08 au
q 2.099008428293405 1.4768e-07 au
i 2.496354017636396 4.753e-06 deg
node 258.2705018550375 0.00012859 deg
peri 278.5413765110784 0.00012904 deg
M 275.2519816363676 1.1993e-05 deg
tp 2459357.520603709727
(2021-May-23.02060371)
5.1375e-05 TDB
period 1516.583158133835
4.15
1.2798e-05
3.504e-08
d
yr
n .2373757074046518 2.0032e-09 deg/d
Q 3.067635477891191 1.7258e-08 au
  Orbit Determination Parameters
   # obs. used (total)      410  
   data-arc span      13377 days (36.62 yr)  
   first obs. used      1984-03-05  
   last obs. used      2020-10-19  
   planetary ephem.      DE431  
   SB-pert. ephem.      SB431-N16  
   condition code      0  
   norm. resid. RMS      .59587  
   source      ORB  
   producer      Otto Matic  
   solution date      2020-Nov-12 20:06:19  

Additional Information
 Earth MOID = 1.10495 au 
 Jupiter MOID = 1.91056 au 
 T_jup = 3.397 
[ show covariance matrix ]

Ephemeris | Orbit Diagram | Orbital Elements | Mission Design | Physical Parameters | Discovery Circumstances | Close-Approach Data ]

Physical Parameter Table
Parameter Symbol Value Units Sigma Reference Notes
absolute magnitude H 16.4   n/a MPO453458  

100411 (1996 AF11)          Discovered 1996-Jan-13 by Spacewatch at Kitt Peak
Reference: 20051019/Numbers.arcLast Updated: 2005-10-26

[ show close-approach data ]
Alternate Designations
 1996 AF11 = 1992 DH10 
Ephemeris | Orbit Diagram | Orbital Elements | Mission Design | Physical Parameters | Discovery Circumstances | Close-Approach Data ]
ABOUT SSD CREDITS/AWARDS PRIVACY/COPYRIGHT GLOSSARY LINKS
FirstGov 2020-Nov-24 01:15 UT
(server date/time)  
NASA Home Page
Site Manager:   Ryan S. Park
Webmaster  Alan B. Chamberlin